User: anonymous   Login
Location: Unspecified
(50.0959°N, 14.3921°E)
Time: 02:57:53
(UTC+01:00)
Language:

GALEX - Orbit

View from above orbital plane
View from above orbital plane
View from above satellite
View from above satellite

Ground track
Ground track

The orbit data is extracted from the following two-line orbital elements,

1 27783U 03017A   19045.85737428  .00000179  00000-0  14038-4 0  9998
2 27783  28.9991 334.2301 0003606 273.3439  86.6737 14.62135551844432
Epoch (UTC): 14 February 2019 20:34:37
Eccentricity: 0.0003606
inclination: 28.9991°
perigee height: 684 km
apogee height: 689 km
right ascension of ascending node: 334.2301°
argument of perigee: 273.3439°
revolutions per day: 14.62135551
mean anomaly at epoch: 86.6737°
orbit number at epoch: 84443

The dashed part of the orbit path shows where the satellite is in the earth's shadow,  

DLR